KI0MQ Weather Reports


time (UTC)temp
C
wind
direction
speed
KPH
gust
KPH
rain 1hr
cm
rain 24hr
cm
rain mn
cm
humidity
%
barometer
mb
20260510211508 22 325 4.8 19.3 0.00 0.00 0.00 32 1019.4
20260510211004 23 324 4.8 19.3 0.00 0.00 0.00 32 1019.6
20260510210503 23 318 3.2 16.1 0.00 0.00 0.00 32 1019.5
20260510210008 24 283 1.6 8.0 0.00 0.00 0.00 31 1019.6
20260510205503 24 199 1.6 4.8 0.00 0.00 0.00 34 1019.6
20260510205003 23 206 1.6 6.4 0.00 0.00 0.00 36 1019.7
20260510204508 23 230 3.2 11.3 0.00 0.00 0.00 34 1019.7
20260510204005 23 292 1.6 11.3 0.00 0.00 0.00 36 1019.6
20260510203504 23 337 1.6 8.0 0.00 0.00 0.00 31 1019.7
20260510203008 23 313 3.2 12.9 0.00 0.00 0.00 31 1019.7
20260510202004 23 322 1.6 6.4 0.00 0.00 0.00 35 1020.0
20260510201003 23 232 1.6 4.8 0.00 0.00 0.00 31 1020.1
20260510200503 23 261 1.6 4.8 0.00 0.00 0.00 30 1020.2
20260510200009 23 279 1.6 8.0 0.00 0.00 0.00 32 1020.2
20260510195503 23 258 3.2 8.0 0.00 0.00 0.00 31 1020.3
20260510194508 23 259 3.2 9.7 0.00 0.00 0.00 34 1020.4
20260510194003 23 295 1.6 14.5 0.00 0.00 0.00 31 1020.5
20260510193503 23 284 1.6 14.5 0.00 0.00 0.00 31 1020.6
20260510193009 23 242 3.2 8.0 0.00 0.00 0.00 33 1020.6
20260510192503 23 257 3.2 12.9 0.00 0.00 0.00 33 1020.8
20260510192004 23 274 3.2 12.9 0.00 0.00 0.00 32 1020.7
20260510191509 22 357 3.2 11.3 0.00 0.00 0.00 32 1020.6
20260510191004 22 350 3.2 11.3 0.00 0.00 0.00 32 1020.8
20260510190503 23 257 1.6 8.0 0.00 0.00 0.00 34 1020.9
20260510185503 22 202 3.2 8.0 0.00 0.00 0.00 36 1021.0
20260510185003 22 218 3.2 8.0 0.00 0.00 0.00 33 1021.0
20260510184507 22 250 1.6 6.4 0.00 0.00 0.00 32 1021.1
20260510184004 22 331 3.2 9.7 0.00 0.00 0.00 32 1021.2
20260510183503 22 1 3.2 12.9 0.00 0.00 0.00 32 1021.2
20260510182503 22 203 1.6 4.8 0.00 0.00 0.00 35 1021.3
20260510182003 22 241 1.6 6.4 0.00 0.00 0.00 36 1021.4
20260510181508 22 279 1.6 6.4 0.00 0.00 0.00 34 1021.4
20260510181003 22 245 1.6 6.4 0.00 0.00 0.00 35 1021.5
20260510180504 21 282 1.6 9.7 0.00 0.00 0.00 35 1021.6
20260510180008 21 324 1.6 9.7 0.00 0.00 0.00 34 1021.7
20260510175503 21 325 1.6 8.0 0.00 0.00 0.00 35 1021.7
20260510175003 21 261 1.6 8.0 0.00 0.00 0.00 34 1021.8
20260510174508 21 253 1.6 8.0 0.00 0.00 0.00 36 1021.8
20260510174004 20 243 1.6 6.4 0.00 0.00 0.00 35 1021.8
20260510173503 20 235 0.0 3.2 0.00 0.00 0.00 38 1021.8
20260510173009 20 240 1.6 6.4 0.00 0.00 0.00 38 1021.8
20260510172004 19 320 3.2 9.7 0.00 0.00 0.00 36 1021.8
20260510171509 20 239 1.6 9.7 0.00 0.00 0.00 37 1021.9
20260510171003 19 331 1.6 6.4 0.00 0.00 0.00 38 1022.1
20260510170503 19 274 1.6 6.4 0.00 0.00 0.00 38 1022.1
20260510170008 19 202 1.6 3.2 0.00 0.00 0.00 38 1022.2
20260510165503 19 273 1.6 6.4 0.00 0.00 0.00 39 1022.3
20260510165003 18 292 1.6 6.4 0.00 0.00 0.00 41 1022.3
20260510164508 18 236 1.6 4.8 0.00 0.00 0.00 38 1022.3
20260510163008 18 250 3.2 6.4 0.00 0.00 0.00 38 1022.3
20260510162003 17 204 1.6 4.8 0.00 0.00 0.00 41 1022.2
20260510161508 17 264 1.6 4.8 0.00 0.00 0.00 42 1022.2
20260510161003 17 10 1.6 4.8 0.00 0.00 0.00 40 1022.2
20260510160503 17 200 1.6 6.4 0.00 0.00 0.00 41 1022.1
20260510160008 17 193 1.6 6.4 0.00 0.00 0.00 40 1022.3
20260510155503 17 193 1.6 4.8 0.00 0.00 0.00 39 1022.3
20260510155005 17 182 1.6 4.8 0.00 0.00 0.00 42 1022.2
20260510154508 16 160 1.6 4.8 0.00 0.00 0.00 42 1022.3
20260510154003 16 181 1.6 4.8 0.00 0.00 0.00 40 1022.3
20260510153009 16 243 1.6 4.8 0.00 0.00 0.00 41 1022.3
20260510152503 16 187 1.6 6.4 0.00 0.00 0.00 42 1022.3
20260510152004 16 183 1.6 6.4 0.00 0.00 0.00 42 1022.2
20260510151508 16 183 3.2 6.4 0.00 0.00 0.00 44 1022.2
20260510151003 15 181 3.2 6.4 0.00 0.00 0.00 42 1022.1
20260510150504 15 182 1.6 3.2 0.00 0.00 0.00 46 1022.1
20260510145504 15 188 3.2 8.0 0.00 0.00 0.00 47 1022.1
20260510145003 15 190 3.2 8.0 0.00 0.00 0.00 44 1022.1
20260510144508 15 185 3.2 9.7 0.00 0.00 0.00 45 1022.2
20260510144004 14 186 3.2 9.7 0.00 0.00 0.00 44 1022.2
20260510143009 13 191 1.6 4.8 0.00 0.00 0.00 47 1021.9
20260510142503 13 203 1.6 3.2 0.00 0.00 0.00 48 1021.9
20260510142004 13 199 1.6 3.2 0.00 0.00 0.00 47 1021.8
20260510141508 13 198 0.0 1.6 0.00 0.00 0.00 50 1021.8
20260510141004 13 198 0.0 1.6 0.00 0.00 0.00 48 1021.7
20260510140008 12 205 1.6 4.8 0.00 0.00 0.00 48 1021.5
20260510135504 12 294 0.0 3.2 0.00 0.00 0.00 49 1021.5
20260510135004 11 330 0.0 1.6 0.00 0.00 0.00 52 1021.6
20260510133503 11 330 0.0 1.6 0.00 0.00 0.00 53 1021.5
20260510133009 10 0 0.0 0.0 0.00 0.00 0.00 58 1021.4
20260510132003 10 331 0.0 1.6 0.00 0.00 0.00 61 1021.4
20260510131508 10 0 0.0 0.0 0.00 0.00 0.00 63 1021.4
20260510131004 9 0 0.0 0.0 0.00 0.00 0.00 64 1021.5
20260510130503 8 331 0.0 1.6 0.00 0.00 0.00 67 1021.4
20260510130008 8 331 0.0 1.6 0.00 0.00 0.00 67 1021.3
20260510125505 8 0 0.0 0.0 0.00 0.00 0.00 69 1021.2
20260510125003 7 0 0.0 0.0 0.00 0.00 0.00 73 1021.3
20260510124508 7 0 0.0 0.0 0.00 0.00 0.00 72 1021.2
20260510124003 7 0 0.0 0.0 0.00 0.00 0.00 74 1021.2
20260510123009 6 0 0.0 0.0 0.00 0.00 0.00 77 1020.9
20260510122503 6 0 0.0 0.0 0.00 0.00 0.00 78 1020.9
20260510122003 6 0 0.0 0.0 0.00 0.00 0.00 80 1020.9
20260510121508 6 0 0.0 0.0 0.00 0.00 0.00 80 1020.8
20260510121004 6 0 0.0 0.0 0.00 0.00 0.00 82 1020.8
20260510120503 5 0 0.0 0.0 0.00 0.00 0.00 82 1020.8
20260510120008 5 0 0.0 0.0 0.00 0.00 0.00 82 1020.7
20260510115503 5 0 0.0 0.0 0.00 0.00 0.00 82 1020.7
20260510114003 5 0 0.0 0.0 0.00 0.00 0.00 81 1020.5
20260510113503 5 0 0.0 0.0 0.00 0.00 0.00 81 1020.5
20260510113009 5 0 0.0 0.0 0.00 0.00 0.00 80 1020.5
20260510112504 5 0 0.0 0.0 0.00 0.00 0.00 79 1020.5
20260510112004 5 0 0.0 0.0 0.00 0.00 0.00 79 1020.4
20260510111508 5 0 0.0 0.0 0.00 0.00 0.00 78 1020.4
20260510110503 5 0 0.0 0.0 0.00 0.00 0.00 78 1020.4
20260510105504 5 0 0.0 0.0 0.00 0.00 0.00 78 1020.4
20260510105003 5 0 0.0 0.0 0.00 0.00 0.00 78 1020.3
20260510104003 5 0 0.0 0.0 0.00 0.00 0.00 78 1020.3
20260510103503 5 0 0.0 0.0 0.00 0.00 0.00 78 1020.3
20260510102503 5 0 0.0 0.0 0.00 0.00 0.00 77 1020.3
20260510102004 5 0 0.0 0.0 0.00 0.00 0.00 77 1020.2
20260510101004 5 0 0.0 0.0 0.00 0.00 0.00 75 1019.9
20260510100504 5 0 0.0 0.0 0.00 0.00 0.00 75 1019.8
20260510100009 5 0 0.0 0.0 0.00 0.00 0.00 76 1019.8
20260510095003 5 0 0.0 0.0 0.00 0.00 0.00 76 1019.5
20260510093504 5 0 0.0 0.0 0.00 0.00 0.00 74 1019.5
20260510093009 5 0 0.0 0.0 0.00 0.00 0.00 74 1019.3
20260510092503 5 0 0.0 0.0 0.00 0.00 0.00 74 1019.3
20260510092003 5 0 0.0 0.0 0.00 0.00 0.00 74 1019.2
20260510091508 6 0 0.0 0.0 0.00 0.00 0.00 73 1019.2
20260510091003 5 0 0.0 0.0 0.00 0.00 0.00 74 1019.1
20260510090503 5 0 0.0 0.0 0.00 0.00 0.00 74 1019.0
20260510090008 5 0 0.0 0.0 0.00 0.00 0.00 74 1018.9
20260510085504 5 0 0.0 0.0 0.00 0.00 0.00 73 1018.9
20260510085005 5 0 0.0 0.0 0.00 0.00 0.00 72 1018.8
20260510084508 5 0 0.0 0.0 0.00 0.00 0.00 71 1018.8
20260510084003 6 0 0.0 0.0 0.00 0.00 0.00 69 1019.0
20260510083503 6 0 0.0 0.0 0.00 0.00 0.00 69 1018.8
20260510083008 6 0 0.0 0.0 0.00 0.00 0.00 69 1018.8
20260510082503 6 0 0.0 0.0 0.00 0.00 0.00 68 1018.9
20260510082003 6 0 0.0 0.0 0.00 0.00 0.00 66 1018.7
20260510081508 7 0 0.0 0.0 0.00 0.00 0.00 66 1018.6
20260510080504 7 0 0.0 0.0 0.00 0.00 0.00 65 1018.6
20260510080008 7 0 0.0 0.0 0.00 0.00 0.00 64 1018.8
20260510075504 7 0 0.0 0.0 0.00 0.00 0.00 63 1018.8
20260510074509 8 0 0.0 0.0 0.00 0.00 0.00 64 1018.6
20260510073504 8 0 0.0 0.0 0.00 0.00 0.00 63 1018.4
20260510073008 8 0 0.0 0.0 0.00 0.00 0.00 62 1018.3
20260510072503 8 0 0.0 0.0 0.00 0.00 0.00 61 1018.2
20260510071508 8 0 0.0 0.0 0.00 0.00 0.00 59 1018.2
20260510071003 9 0 0.0 0.0 0.00 0.00 0.00 58 1018.2
20260510070503 10 0 0.0 0.0 0.00 0.00 0.00 58 1018.1
20260510070008 10 0 0.0 0.0 0.00 0.00 0.00 56 1018.1
20260510065503 10 329 0.0 1.6 0.00 0.00 0.00 54 1018.0
20260510065004 10 335 0.0 4.8 0.00 0.00 0.00 54 1018.1
20260510064508 10 336 0.0 4.8 0.00 0.00 0.00 53 1018.1
20260510064004 10 353 0.0 3.2 0.00 0.00 0.00 54 1018.1
20260510062503 11 307 0.0 1.6 0.00 0.00 0.00 54 1017.9
20260510062004 11 307 0.0 1.6 0.00 0.00 0.00 53 1018.1
20260510061508 11 0 0.0 0.0 0.00 0.00 0.00 52 1018.0
20260510060504 12 332 0.0 1.6 0.00 0.00 0.00 49 1018.0
20260510055503 12 359 0.0 6.4 0.00 0.00 0.00 48 1017.6
20260510055004 12 7 0.0 3.2 0.00 0.00 0.00 47 1017.3
20260510054508 12 345 0.0 4.8 0.00 0.00 0.00 47 1017.1
20260510054003 12 351 1.6 6.4 0.00 0.00 0.00 47 1016.9
20260510053505 12 357 0.0 8.0 0.00 0.00 0.00 47 1016.8
20260510053008 12 355 0.0 8.0 0.00 0.00 0.00 47 1016.7
20260510052504 12 2 1.6 8.0 0.00 0.00 0.00 47 1016.5
20260510052003 13 8 0.0 4.8 0.00 0.00 0.00 47 1016.5
20260510051508 13 350 0.0 6.4 0.00 0.00 0.00 47 1016.4
20260510051004 13 1 0.0 6.4 0.00 0.00 0.00 47 1016.3
20260510050504 13 4 0.0 3.2 0.00 0.00 0.00 47 1016.4
20260510050010 13 352 0.0 3.2 0.00 0.00 0.00 47 1016.3
20260510045503 13 355 0.0 3.2 0.00 0.00 0.00 47 1016.3
20260510045003 13 358 0.0 3.2 0.00 0.00 0.00 47 1016.2
20260510044508 13 24 0.0 4.8 0.00 0.00 0.00 47 1016.1
20260510044004 13 54 0.0 4.8 0.00 0.00 0.00 47 1016.0
20260510043503 14 23 0.0 4.8 0.00 0.00 0.00 46 1015.9
20260510043009 14 7 1.6 9.7 0.00 0.00 0.00 46 1015.9
20260510042504 14 353 1.6 9.7 0.00 0.00 0.00 46 1015.8
20260510041508 14 357 1.6 4.8 0.00 0.00 0.00 45 1015.6
20260510041003 15 356 1.6 4.8 0.00 0.00 0.00 45 1015.6
20260510040504 15 2 0.0 4.8 0.00 0.00 0.00 45 1015.5
20260510040008 15 2 0.0 4.8 0.00 0.00 0.00 45 1015.3
20260510035503 15 353 1.6 4.8 0.00 0.00 0.00 45 1015.3
20260510035003 15 23 1.6 6.4 0.00 0.00 0.00 44 1015.2
20260510034509 15 31 1.6 6.4 0.00 0.00 0.00 44 1015.1
20260510034003 15 24 1.6 6.4 0.00 0.00 0.00 44 1015.0
20260510033503 15 14 1.6 9.7 0.00 0.00 0.00 44 1014.9
20260510032503 16 12 1.6 9.7 0.00 0.00 0.00 44 1014.7
20260510032003 16 7 1.6 9.7 0.00 0.00 0.00 44 1014.6
20260510031508 16 9 1.6 9.7 0.00 0.00 0.00 43 1014.6
20260510030008 16 12 1.6 9.7 0.00 0.00 0.00 43 1014.3
20260510025504 16 11 1.6 8.0 0.00 0.00 0.00 42 1014.1
20260510024508 16 353 0.0 4.8 0.00 0.00 0.00 43 1013.8
20260510024003 16 357 0.0 3.2 0.00 0.00 0.00 43 1013.6
20260510023008 17 355 0.0 3.2 0.00 0.00 0.00 43 1013.5
20260510022003 17 7 0.0 4.8 0.00 0.00 0.00 42 1013.3
20260510021508 17 5 1.6 4.8 0.00 0.00 0.00 41 1013.0
20260510021003 17 8 1.6 6.4 0.00 0.00 0.00 41 1012.9
20260510020503 18 10 1.6 11.3 0.00 0.00 0.00 41 1012.8
20260510020009 18 9 1.6 11.3 0.00 0.00 0.00 41 1012.8
20260510015003 18 355 1.6 6.4 0.00 0.00 0.00 41 1012.6
20260510014509 18 22 1.6 8.0 0.00 0.00 0.00 41 1012.4
20260510014003 18 31 1.6 8.0 0.00 0.00 0.00 41 1012.4
20260510013503 18 23 1.6 6.4 0.00 0.00 0.00 42 1012.2
20260510013009 19 16 1.6 9.7 0.00 0.00 0.00 42 1012.1
20260510012003 20 23 1.6 8.0 0.00 0.00 0.00 42 1011.8
20260510011509 20 19 1.6 6.4 0.00 0.00 0.00 43 1011.8
20260510011004 20 17 1.6 6.4 0.00 0.00 0.00 42 1011.6
20260510010503 20 24 1.6 6.4 0.00 0.00 0.00 44 1011.5
20260510010009 20 20 1.6 8.0 0.00 0.00 0.00 45 1011.3
20260510005503 20 12 1.6 8.0 0.00 0.00 0.00 44 1011.3
20260510005004 21 11 1.6 8.0 0.00 0.00 0.00 45 1011.2
20260510004509 21 19 3.2 9.7 0.00 0.00 0.00 44 1011.2
20260510004003 21 20 4.8 11.3 0.00 0.00 0.00 44 1011.1
20260510003503 21 16 4.8 14.5 0.00 0.00 0.00 44 1011.1
20260510003009 20 15 3.2 14.5 0.00 0.00 0.00 45 1011.1
20260510002003 20 15 3.2 8.0 0.00 0.00 0.00 46 1011.0
20260510001508 20 14 1.6 8.0 0.00 0.00 0.00 47 1010.9
20260510001004 20 24 1.6 9.7 0.00 0.00 0.00 48 1010.9
20260510000503 21 24 3.2 9.7 0.00 0.00 0.00 46 1011.0
20260510000008 21 18 1.6 9.7 0.00 0.00 0.00 47 1011.0
20260509235504 21 3 1.6 6.4 0.00 0.00 0.00 47 1011.0
20260509235003 21 341 1.6 4.8 0.00 0.00 0.00 49 1011.0
20260509234509 21 9 1.6 6.4 0.00 0.00 0.00 49 1011.0
20260509234004 21 2 3.2 12.9 0.00 0.00 0.00 48 1011.0
20260509233504 21 357 3.2 12.9 0.00 0.00 0.00 47 1011.0
20260509233008 21 357 3.2 12.9 0.00 0.00 0.00 48 1011.0
20260509232503 21 8 1.6 9.7 0.00 0.00 0.00 48 1011.0
20260509232005 21 10 3.2 9.7 0.00 0.00 0.00 48 1010.9
20260509231003 21 20 3.2 9.7 0.00 0.00 0.00 48 1010.9
20260509230503 21 11 3.2 9.7 0.00 0.00 0.00 48 1010.9
20260509230009 21 356 3.2 9.7 0.00 0.00 0.00 48 1010.9
20260509225503 21 4 3.2 12.9 0.00 0.00 0.00 48 1010.9
20260509223503 21 20 3.2 11.3 0.00 0.00 0.00 49 1010.7
20260509223008 21 7 4.8 17.7 0.00 0.00 0.00 48 1010.7
20260509222503 21 8 4.8 17.7 0.00 0.00 0.00 48 1010.7
20260509222004 21 3 3.2 14.5 0.00 0.00 0.00 47 1010.6
20260509221003 21 12 4.8 17.7 0.00 0.00 0.00 47 1010.6
20260509220008 21 12 6.4 19.3 0.00 0.00 0.00 47 1010.5
20260509215505 21 357 4.8 16.1 0.00 0.00 0.00 47 1010.3
20260509215003 21 9 6.4 16.1 0.00 0.00 0.00 47 1010.4
20260509214510 21 21 6.4 16.1 0.00 0.00 0.00 48 1010.2
20260509214003 21 23 6.4 16.1 0.00 0.00 0.00 47 1010.3
20260509213503 21 16 6.4 17.7 0.00 0.00 0.00 46 1010.3
20260509213010 21 8 4.8 17.7 0.00 0.00 0.00 46 1010.1
20260509212504 21 358 6.4 17.7 0.00 0.00 0.00 45 1010.1
20260509212003 21 355 6.4 19.3 0.00 0.00 0.00 45 1010.1